Temperature
7 6 6 7 7 8 7 7 8 8 9 9 8 8 9 8 8 8 9 9 10 11 12 12 12 12 12 12 12 11 11 11 11 10 10 10 10 10 10 10 10 10 10 10
6 6 7 7 7 7 7 7 7 8 8 8 8 8 8 7 7 8 9 9 10 11 11 11 12 12 12 12 12 11 11 11 11 10 10 10 10 10 10 9 9 9 9 9
6 6 7 7 7 7 7 7 7 7 7 8 8 8 8 8 8 8 9 9 10 10 11 11 11 12 11 11 11 11 11 11 10 10 10 10 9 9 9 9 9 9 9 9
5 6 6 6 6 7 6 7 7 7 7 6 7 7 7 7 7 7 7 8 9 9 10 11 11 11 11 11 11 11 11 11 10 10 10 10 10 9 9 9 9 9 8 8
5 5 6 6 6 7 6 7 7 7 6 5 6 6 6 6 7 7 6 7 8 9 10 10 11 11 11 11 11 11 10 10 10 10 10 9 9 9 9 9 8 8 8 8
5 5 6 6 6 7 6 6 5 5 5 6 5 6 6 5 6 7 6 7 8 8 9 9 10 10 10 10 10 10 10 10 10 10 9 9 9 9 9 8 8 8 8 7
4 5 5 5 5 6 6 5 5 5 5 5 5 5 6 6 5 6 6 6 7 8 8 8 9 9 10 10 10 10 10 9 9 9 9 9 9 9 8 8 8 8 7 7
3 4 4 5 5 5 5 5 5 5 5 5 4 5 5 6 5 6 6 6 7 7 7 8 8 9 9 9 10 10 9 9 9 9 9 9 8 8 8 8 8 7 7 7
3 3 4 5 5 5 5 5 4 4 3 4 4 4 5 5 5 5 5 5 6 6 7 7 8 8 8 9 9 9 9 9 9 9 8 8 8 8 8 8 7 7 7 7
3 2 3 4 5 5 5 4 3 3 4 5 5 5 5 5 5 5 4 4 5 6 6 7 7 7 8 8 9 9 9 9 8 8 8 8 8 8 8 7 7 7 7 7
2 2 2 3 4 4 4 4 3 3 3 4 5 5 5 5 4 4 4 4 5 5 6 6 6 7 7 7 8 8 8 8 8 8 8 7 7 7 7 7 7 7 6 6
1 1 1 2 3 3 4 3 2 3 2 2 3 5 5 4 4 3 3 4 4 5 5 5 6 6 6 7 7 7 7 7 7 7 7 7 7 7 7 7 7 6 6 6
2 1 2 2 2 2 3 2 2 2 2 1 3 5 4 3 3 3 3 4 4 5 5 5 5 5 6 6 6 6 7 7 7 7 7 6 6 6 6 6 6 6 6 6
2 0 1 2 2 1 1 2 2 2 2 2 3 4 4 4 3 3 3 3 4 4 5 5 5 5 5 5 6 6 6 6 6 6 6 6 6 6 6 6 6 6 5 5
1 0 0 1 2 2 2 2 2 2 2 3 3 3 4 4 3 3 3 3 3 3 4 4 5 5 5 5 5 5 6 6 6 6 6 6 6 5 5 5 5 5 5 5
-0 -0 0 1 2 2 2 2 2 2 2 2 3 3 3 3 3 2 2 2 3 3 4 4 4 4 4 4 5 5 5 5 5 5 5 5 5 5 5 5 5 5 4 4
-1 -1 -0 0 1 2 2 1 2 2 1 2 3 3 2 2 2 2 2 2 3 3 4 4 4 4 4 4 4 4 5 5 5 5 5 5 4 4 4 4 4 4 4 4
-1 -1 -1 -1 0 1 2 1 2 2 1 1 2 2 2 2 2 2 3 3 3 3 3 3 3 3 4 4 4 4 4 4 4 4 4 4 4 4 4 4 4 4 4 4
-1 -1 -2 -1 -0 0 1 1 0 1 1 1 1 1 1 1 1 1 2 3 3 3 3 3 3 3 3 4 4 4 4 4 4 4 4 4 4 3 3 3 3 3 3 3
-2 -3 -2 -2 -0 1 1 1 1 1 1 0 0 -0 -0 0 1 1 2 2 2 2 2 2 3 3 3 3 3 3 3 3 3 3 3 3 3 3 3 3 3 3 3 3
-2 -3 -3 -2 -2 -1 0 -0 1 1 1 1 0 -0 -1 -0 0 1 1 1 1 2 2 2 2 3 3 3 3 3 3 3 3 3 3 3 2 2 2 2 2 2 2 2
-2 -3 -3 -3 -2 -0 -1 -1 -0 0 0 0 0 -0 -1 -1 -0 0 0 1 1 1 1 2 2 2 2 2 2 2 2 2 2 2 2 2 2 2 2 2 2 2 2 2
-3 -3 -3 -2 -1 -1 -1 -1 -1 -1 -1 -1 -1 -0 -0 -1 -1 -1 -0 -0 0 0 1 1 1 2 2 2 2 2 2 2 2 2 2 1 1 1 1 1 1 1 1 1
-4 -4 -3 -3 -2 -2 -2 -2 -1 -1 -1 -1 -1 -1 -1 -1 -2 -1 -1 -1 -1 -0 0 0 1 1 1 1 1 1 1 1 1 1 1 1 1 1 1 1 1 1 1 1
-4 -4 -4 -3 -3 -3 -2 -2 -2 -1 -1 -1 -1 -1 -1 -1 -2 -2 -2 -1 -1 -1 -1 -0 -0 0 0 1 1 1 1 1 0 0 0 0 0 0 0 0 0 0 0 0
-5 -5 -4 -3 -3 -4 -3 -2 -2 -2 -2 -2 -2 -2 -2 -2 -2 -2 -2 -2 -1 -1 -1 -1 -1 -0 -0 -0 0 -0 -0 -0 -0 -0 -0 -0 -1 -1 -0 -0 -0 -0 -0 -0
Wind_Speed
2 4 8 10 8 4 4 5 5 5 3 3 6 8 8 5 4 5 6 6 7 8 6 5 6 7 7 7 8 8 8 8 7 4 4 3 2 2 1 1 2 3 3 3
3 7 7 5 4 4 4 4 3 1 1 2 5 8 7 6 6 7 8 8 8 6 4 4 6 7 9 10 9 9 9 9 8 6 4 3 3 2 1 1 2 2 3 3
7 3 4 5 5 5 5 6 5 3 2 2 1 5 5 5 4 4 5 6 6 7 7 6 7 8 9 10 11 11 10 9 8 6 5 4 3 2 1 1 1 0 1 2
3 2 4 6 6 6 5 5 5 3 2 2 1 4 6 4 4 4 5 4 5 5 5 5 7 8 10 10 10 10 10 9 8 8 7 7 5 4 3 2 1 1 1 1
4 3 5 7 6 5 4 2 3 3 3 1 2 3 7 2 4 6 5 4 4 4 5 6 7 8 8 8 8 8 9 8 8 8 9 8 5 3 2 2 2 1 0 0
1 1 2 3 2 4 4 4 3 3 3 4 6 6 6 3 5 4 4 4 3 3 3 3 3 4 4 5 7 8 9 8 8 8 8 8 7 5 5 3 3 2 1 0
1 1 0 2 3 2 4 5 2 0 2 6 3 5 6 4 3 4 4 4 3 3 2 2 2 3 4 6 8 8 9 8 8 8 8 8 8 7 7 5 4 3 2 1
2 3 2 1 3 4 5 6 5 5 5 3 2 6 5 3 2 2 2 1 1 0 1 2 3 3 4 5 7 8 9 8 8 8 7 6 6 5 5 5 4 4 3 3
3 3 2 1 1 5 4 3 3 3 2 1 4 5 6 3 4 4 4 3 2 1 1 2 1 2 3 4 6 7 8 8 8 7 7 6 6 6 5 5 4 3 3 2
2 2 2 1 2 2 3 5 4 3 4 4 4 4 3 4 4 4 3 3 3 2 1 0 1 1 1 2 4 5 6 8 7 7 7 6 6 6 5 4 4 4 3 2
1 2 1 0 2 4 3 3 3 3 3 4 3 4 2 3 2 2 3 2 2 1 1 1 1 1 2 2 3 4 4 5 5 6 5 5 5 4 4 4 4 4 3 3
1 2 1 3 2 1 3 4 5 4 3 3 3 4 3 1 1 1 2 2 2 2 2 2 2 3 3 3 2 2 3 4 5 5 5 4 4 4 4 4 3 3 3 3
1 2 2 2 2 1 1 2 3 3 3 4 4 4 3 3 3 3 2 2 2 2 3 3 3 3 2 2 2 1 2 3 3 4 5 4 4 4 4 3 3 3 2 2
2 2 4 7 5 3 3 3 3 4 4 4 6 5 4 3 3 4 3 2 2 2 3 3 3 2 2 2 1 1 1 2 3 4 5 4 4 4 3 3 2 2 2 2
3 1 2 3 4 2 3 4 5 6 6 7 6 6 6 4 3 3 2 2 2 2 3 2 2 2 2 2 2 1 1 2 3 4 4 4 3 3 2 2 2 1 1 1
2 1 1 2 2 1 2 3 5 5 4 5 4 6 4 3 1 2 1 1 0 1 2 2 2 1 1 1 1 1 1 1 3 3 3 2 3 3 2 2 2 1 1 1
1 1 0 2 3 1 3 5 5 4 4 5 7 7 3 2 3 3 3 2 2 2 1 1 1 1 1 1 1 1 1 1 2 3 2 2 2 3 2 2 2 1 1 0
2 1 1 0 2 3 4 1 3 3 3 3 2 2 3 3 3 2 2 2 2 2 2 2 2 2 2 1 1 1 1 1 2 2 2 2 2 2 2 2 1 1 0 0
3 3 1 1 1 5 4 2 0 3 4 2 3 3 3 2 3 3 2 1 2 2 2 2 1 1 1 1 1 1 1 1 2 2 2 2 2 2 2 1 1 0 0 0
3 3 3 2 1 4 4 3 3 1 3 2 2 3 2 1 1 4 3 2 2 2 1 1 1 1 1 1 1 2 1 1 1 1 1 1 2 2 1 1 1 0 0 0
1 2 2 2 3 6 4 4 1 2 4 4 2 2 1 2 3 3 2 2 2 2 2 1 1 1 1 1 2 2 1 0 0 1 2 2 2 1 1 1 1 1 1 1
2 2 2 2 2 5 3 2 2 3 4 3 3 2 1 2 2 1 1 2 2 3 2 2 2 2 2 1 2 2 1 1 1 2 2 2 2 1 1 2 1 1 1 1
3 3 3 4 5 3 2 2 3 3 4 3 3 3 1 1 2 2 2 2 2 2 3 2 2 2 3 2 2 2 1 1 2 3 3 2 2 2 2 1 1 1 1 1
3 2 2 3 5 4 4 3 4 4 4 4 3 2 2 1 1 1 1 2 2 2 2 2 2 2 2 3 2 1 2 2 3 3 2 2 2 2 2 1 1 1 0 1
4 2 2 4 5 5 4 4 5 4 4 4 4 3 2 1 1 1 1 2 2 2 2 2 2 2 2 2 3 2 2 3 3 2 2 2 2 2 2 2 2 1 0 1
2 2 2 5 4 3 5 5 4 3 3 3 3 3 3 2 1 1 1 1 1 2 2 2 2 2 2 2 3 3 2 2 3 2 2 2 2 2 2 2 3 4 3 3
Wind_Direction
149 157 204 204 198 192 173 180 215 231 221 191 226 252 264 251 226 233 235 228 226 230 233 206 189 176 164 162 163 165 158 155 149 144 144 141 149 147 136 119 123 121 116 112
116 220 215 177 175 172 170 189 207 268 282 208 242 262 266 241 226 225 225 226 227 227 223 204 185 176 176 175 173 170 168 167 168 166 156 143 137 143 154 140 116 124 123 123
186 221 166 158 176 181 207 195 194 206 347 348 295 287 260 254 234 238 235 231 227 218 214 206 193 188 182 182 180 180 178 173 169 154 132 110 90 81 96 123 162 151 137 126
214 233 162 172 196 179 220 208 189 188 158 269 173 260 270 260 266 255 253 247 241 234 218 205 197 191 193 193 183 177 175 172 167 157 157 156 164 174 191 175 176 172 143 138
219 189 167 190 204 178 189 167 182 190 171 245 210 213 278 293 261 263 262 258 254 239 217 209 202 199 198 189 178 174 169 170 167 166 167 165 167 167 149 143 148 155 159 155
224 202 169 182 166 156 139 79 55 71 115 236 215 190 270 244 237 262 261 263 255 245 230 221 203 178 182 176 171 167 168 173 171 170 171 173 171 163 156 165 171 183 209 233
339 310 355 102 99 118 128 118 97 55 216 241 189 194 247 259 248 243 250 251 246 228 203 192 178 180 182 178 174 171 170 175 174 172 176 180 177 172 176 180 182 184 198 235
153 244 221 161 161 180 193 159 170 190 206 253 195 222 250 280 298 298 295 280 296 293 224 206 201 191 187 181 175 172 173 175 175 176 180 179 175 176 183 183 185 193 203 217
170 247 316 310 155 144 157 186 152 129 133 199 244 276 300 333 349 354 0 14 339 282 255 220 195 174 171 170 175 175 172 172 176 178 175 177 178 180 184 181 182 195 206 211
151 205 291 327 69 30 146 145 116 138 168 222 255 251 257 303 313 337 352 343 321 318 323 37 144 149 150 157 164 162 170 175 175 174 177 182 184 185 179 173 184 195 202 199
94 156 301 50 186 179 125 139 139 147 172 175 227 259 234 248 268 289 298 307 313 322 355 36 54 64 79 84 127 147 154 160 165 171 173 172 180 176 169 178 191 195 194 189
70 135 190 254 277 225 163 163 148 165 217 197 196 262 338 297 300 313 314 333 2 23 35 46 63 61 62 67 84 137 152 160 170 169 164 166 162 159 167 182 191 188 193 193
141 115 102 346 331 350 169 176 170 142 138 173 190 255 350 16 17 6 7 14 17 43 47 43 49 52 55 58 59 92 149 161 154 154 153 151 156 164 177 186 188 188 190 189
81 117 186 207 229 203 226 223 197 163 188 209 223 248 303 326 348 352 5 18 30 47 54 52 44 31 27 33 47 67 123 145 142 144 148 158 173 179 181 178 177 186 185 187
88 154 257 278 269 224 227 223 207 204 208 207 229 231 253 266 285 310 339 10 39 34 29 35 33 19 18 16 18 35 81 127 139 142 153 172 172 163 155 155 160 165 179 201
72 144 318 317 293 247 243 231 219 225 220 229 243 259 259 270 300 319 308 315 286 342 350 0 3 13 15 9 8 20 41 122 136 144 154 155 148 148 154 158 152 152 170 193
95 132 341 294 320 28 254 232 210 221 225 203 224 244 249 263 259 246 251 247 231 243 277 302 314 305 292 303 355 350 330 114 128 135 136 140 147 154 163 156 141 160 187 177
170 143 142 293 31 237 253 284 202 205 244 223 240 276 263 256 278 279 244 230 231 245 260 280 290 311 322 343 3 10 29 102 127 128 130 137 138 142 144 140 151 167 172 185
185 155 127 135 244 279 297 330 157 203 259 263 249 282 312 333 342 315 307 285 253 264 267 267 285 288 328 348 19 65 39 89 121 137 139 139 140 138 135 153 169 140 119 333
66 95 121 130 193 248 271 310 311 114 283 297 260 268 293 36 281 279 327 349 360 8 356 345 353 10 14 358 70 95 72 92 150 162 147 136 135 138 149 179 186 79 131 287
36 43 144 176 229 267 284 310 46 157 265 313 287 267 244 243 245 280 335 1 17 9 0 15 49 33 353 39 93 91 69 45 346 102 104 95 100 122 135 100 73 92 72 49
201 192 207 172 212 258 324 25 169 259 312 326 323 313 301 314 333 1 49 47 30 14 9 33 66 33 13 50 96 80 37 19 66 86 90 82 77 78 83 91 61 69 89 72
216 211 210 208 229 277 310 290 305 326 323 325 332 334 10 358 342 22 42 37 31 19 5 30 71 49 22 28 73 87 19 60 83 86 83 75 66 60 71 101 98 60 63 67
287 282 214 261 279 296 309 319 335 339 329 331 339 350 8 359 356 12 24 29 35 22 19 38 57 61 28 20 40 64 53 75 91 93 89 82 77 61 50 52 81 89 54 16
267 272 257 268 292 316 316 323 326 339 354 3 9 11 19 58 16 23 27 11 7 6 18 39 47 46 29 29 41 43 59 90 91 91 94 79 69 79 59 40 33 16 309 240
259 233 237 259 274 266 284 314 332 343 345 352 12 12 9 23 30 41 31 13 20 21 31 41 41 40 25 31 35 28 42 94 104 90 85 80 74 65 61 50 27 22 20 16
Height
1441 1446 1446 1445 1447 1449 1452 1455 1456 1455 1453 1455 1456 1455 1452 1451 1452 1452 1451 1452 1453 1455 1458 1461 1464 1467 1470 1473 1475 1478 1481 1484 1486 1488 1490 1492 1494 1496 1497 1498 1499 1500 1501 1501
1445 1445 1442 1445 1447 1449 1452 1455 1456 1455 1453 1454 1456 1454 1450 1448 1448 1448 1448 1449 1450 1452 1454 1457 1460 1463 1466 1469 1472 1475 1478 1480 1483 1486 1488 1491 1492 1494 1495 1496 1497 1498 1498 1499
1441 1441 1441 1444 1447 1449 1451 1454 1456 1456 1455 1455 1455 1453 1449 1446 1445 1445 1445 1446 1447 1448 1449 1452 1455 1458 1461 1465 1468 1471 1474 1477 1480 1483 1486 1488 1490 1491 1493 1494 1495 1496 1496 1497
1441 1440 1441 1443 1446 1447 1452 1449 1451 1454 1459 1463 1459 1461 1449 1446 1444 1443 1442 1443 1443 1445 1446 1448 1451 1454 1457 1461 1464 1468 1471 1474 1477 1480 1482 1484 1486 1487 1489 1491 1492 1494 1494 1495
1440 1439 1440 1442 1443 1445 1448 1448 1450 1453 1459 1464 1461 1463 1451 1446 1444 1441 1440 1440 1440 1442 1443 1445 1447 1450 1454 1457 1461 1464 1468 1471 1474 1477 1479 1482 1484 1485 1487 1489 1490 1491 1492 1493
1440 1439 1440 1441 1442 1444 1447 1450 1453 1457 1460 1463 1459 1461 1452 1448 1441 1439 1438 1438 1438 1439 1440 1442 1444 1447 1450 1454 1457 1461 1464 1467 1470 1473 1476 1478 1480 1482 1484 1486 1487 1488 1489 1490
1442 1441 1440 1440 1444 1445 1446 1453 1461 1462 1465 1460 1456 1456 1448 1441 1438 1437 1436 1435 1436 1437 1438 1439 1441 1443 1446 1449 1453 1457 1460 1464 1467 1470 1472 1475 1477 1479 1481 1483 1484 1485 1486 1487
1446 1445 1441 1440 1442 1445 1446 1449 1457 1460 1463 1461 1458 1455 1445 1438 1436 1434 1434 1434 1434 1435 1436 1437 1439 1441 1443 1445 1449 1453 1456 1460 1463 1466 1469 1472 1474 1476 1478 1480 1482 1483 1484 1484
1446 1446 1441 1440 1440 1442 1447 1449 1452 1460 1465 1463 1457 1452 1442 1436 1434 1433 1433 1432 1433 1433 1435 1436 1437 1438 1440 1442 1446 1449 1453 1456 1459 1463 1466 1468 1471 1473 1475 1477 1479 1480 1481 1482
1443 1448 1443 1441 1440 1442 1443 1447 1455 1460 1459 1455 1450 1450 1446 1437 1435 1434 1433 1433 1432 1433 1433 1434 1435 1437 1438 1441 1444 1447 1450 1453 1456 1460 1463 1465 1468 1470 1472 1474 1475 1477 1478 1478
1442 1448 1447 1444 1442 1443 1446 1449 1450 1457 1458 1455 1454 1447 1438 1436 1435 1434 1434 1433 1433 1432 1433 1433 1435 1436 1438 1440 1442 1445 1448 1451 1454 1457 1460 1462 1465 1467 1469 1471 1472 1473 1474 1475
1443 1448 1450 1447 1444 1442 1443 1446 1451 1454 1459 1458 1455 1449 1436 1435 1434 1434 1433 1433 1433 1433 1433 1434 1435 1436 1437 1439 1441 1443 1446 1448 1451 1454 1457 1459 1462 1464 1466 1468 1469 1470 1471 1472
1442 1447 1450 1449 1449 1447 1445 1446 1448 1451 1456 1460 1455 1445 1436 1435 1434 1434 1433 1433 1433 1433 1433 1434 1435 1436 1437 1438 1440 1442 1444 1446 1449 1452 1454 1457 1459 1461 1463 1464 1466 1467 1468 1468
1440 1447 1448 1446 1442 1444 1446 1445 1446 1448 1452 1454 1448 1442 1437 1436 1435 1435 1434 1433 1433 1433 1434 1434 1435 1436 1437 1438 1439 1441 1442 1445 1447 1450 1452 1454 1456 1458 1460 1461 1462 1464 1464 1465
1441 1447 1447 1444 1441 1441 1442 1442 1444 1444 1444 1445 1442 1441 1437 1436 1436 1435 1435 1434 1434 1434 1434 1434 1435 1436 1436 1437 1438 1440 1441 1443 1445 1447 1449 1451 1453 1455 1457 1458 1460 1461 1461 1462
1444 1447 1446 1444 1440 1439 1440 1440 1440 1440 1440 1440 1439 1438 1434 1435 1435 1435 1434 1434 1433 1433 1434 1434 1435 1435 1436 1437 1437 1438 1439 1441 1443 1445 1447 1449 1451 1452 1454 1455 1456 1457 1458 1459
1446 1447 1448 1447 1443 1439 1441 1438 1438 1438 1437 1437 1436 1434 1433 1433 1433 1433 1433 1433 1433 1433 1433 1434 1434 1435 1435 1436 1436 1437 1438 1440 1441 1443 1445 1446 1448 1450 1451 1452 1453 1454 1455 1455
1445 1447 1451 1450 1447 1446 1438 1434 1433 1434 1434 1434 1433 1432 1432 1431 1431 1432 1432 1431 1431 1432 1432 1433 1433 1433 1434 1435 1436 1436 1437 1438 1439 1441 1442 1444 1445 1447 1448 1449 1450 1451 1451 1452
1442 1445 1451 1452 1450 1443 1436 1434 1435 1435 1434 1433 1432 1431 1431 1430 1429 1430 1430 1430 1430 1431 1431 1431 1432 1432 1433 1433 1434 1435 1435 1436 1438 1439 1440 1441 1443 1444 1445 1446 1447 1448 1448 1449
1443 1446 1451 1453 1449 1444 1436 1433 1431 1434 1434 1430 1430 1430 1430 1429 1431 1429 1428 1428 1428 1429 1429 1430 1430 1431 1431 1432 1432 1433 1433 1434 1436 1437 1438 1439 1441 1442 1443 1444 1445 1445 1446 1446
1448 1451 1453 1453 1452 1443 1436 1433 1432 1438 1434 1429 1428 1428 1428 1428 1428 1427 1426 1426 1427 1427 1428 1428 1428 1429 1429 1430 1431 1431 1432 1433 1434 1435 1436 1437 1438 1440 1440 1441 1442 1443 1443 1443
1447 1450 1452 1452 1450 1444 1436 1434 1435 1434 1430 1428 1427 1426 1426 1426 1425 1425 1425 1425 1425 1425 1426 1426 1426 1427 1428 1429 1429 1430 1430 1432 1432 1433 1434 1435 1436 1437 1438 1439 1440 1440 1440 1440
1447 1446 1445 1445 1442 1437 1435 1434 1433 1432 1430 1427 1426 1426 1425 1425 1424 1424 1424 1424 1424 1424 1425 1425 1425 1425 1426 1427 1428 1428 1429 1430 1431 1431 1432 1433 1434 1435 1436 1437 1437 1437 1438 1437
1445 1443 1443 1441 1437 1435 1434 1433 1431 1430 1428 1427 1426 1425 1424 1423 1423 1423 1423 1423 1423 1423 1424 1424 1424 1424 1425 1426 1427 1427 1428 1428 1429 1430 1430 1431 1432 1433 1434 1435 1435 1435 1435 1435
1444 1443 1441 1440 1437 1434 1432 1431 1430 1428 1427 1426 1425 1424 1424 1423 1423 1423 1422 1422 1423 1423 1423 1423 1423 1423 1424 1425 1425 1426 1426 1427 1427 1428 1429 1430 1431 1432 1432 1433 1434 1434 1434 1434
1443 1443 1442 1438 1435 1435 1432 1431 1430 1428 1426 1426 1424 1424 1424 1423 1422 1422 1422 1422 1422 1422 1422 1423 1423 1423 1423 1423 1424 1425 1425 1426 1426 1427 1428 1429 1430 1430 1431 1431 1432 1432 1432 1432